Location: ??????????
(42.1626°N, 44.1160°E)
Time: 11:19:07
(UTC+00:00)

CZ-4B R/B - Pass Details

Date: 03 March 2021
Orbit: 388 x 454 km, 97.6° (Epoch: 20 April)

Event Time Altitude Azimuth Distance (km) Brightness Sun altitude
Rises 15:30:47 0° 7° (N) 2,292 4.9 -7.2°
Reaches altitude 10° 15:32:46 10° 2° (N) 1,435 3.9 -7.6°
Maximum altitude 15:35:44 51° 286° (WNW) 507 2.2 -8.2°
Drops below altitude 10° 15:38:39 11° 209° (SSW) 1,414 4.3 -8.7°
Sets 15:40:44 0° 204° (SSW) 2,306 5.4 -9.1°
